Flag for Germany Weather past 2 weeks in Weiden in der Oberpfalz, Bavaria, Germany

Now
72 °F

Clear.


Feels Like: 76 °F
Forecast: 66 / 93 °F
Wind: 1 mph from Northeast

Location: Weiden

Current Time: Jul 4, 2015 at 2:11:38 AM

Latest Report: Jul 4, 2015 at 1:00 AM


Visibility: 9 mi

Pressure: 30.22 "Hg

Humidity: 63%

Dew point: 59 °F

Location of Weiden in der OberpfalzLocation

Historic Weather in Weiden in der Oberpfalz — Graph

°F

Weiden in der Oberpfalz temperature yesterday

Maximum temperature yesterday: 90 °F (at 6:00 PM)
Minimum temperature yesterday: 63 °F (at 5:00 AM)
Average temperature yesterday: 78 °F

Past Weeks' High & Low Weather Summary

 TemperatureHumidityPressure
High90 °F (Jul 3, 6:00 PM)100% (Jun 23, 2:00 AM)30.28 "Hg (Jun 23, 2:00 AM)
Low44 °F (Jun 25, 5:00 AM)26% (Jun 30, 4:00 PM)29.70 "Hg (Jun 23, 2:00 AM)
Average62 °F70%30.09 "Hg
* Reported Jun 19 1:00 AM — Jul 4 1:00 AM, Weiden in der Oberpfalz, Weather by CustomWeather, © 2015

Note: Actual official high and low records may vary slightly from our data, if they occured in-between our weather recording intervals... More about our weather records

Advertising

Weiden in der Oberpfalz weather history for previous 24 hours

 ConditionsComfort  
Time TempWeatherWind HumidityBarometerVisibility
1:00 AM
Sat, Jul 4
72 °FClear.1 mph63%30.22 "Hg9 mi
12:00 AM74 °FClear.2 mph55%30.21 "Hg12 mi
11:00 PM
Fri, Jul 3
81 °FClear.2 mph42%30.19 "Hg16 mi
10:00 PM81 °FClear.2 mph46%30.19 "Hg16 mi
9:00 PM83 °FPassing clouds.1 mph45%30.18 "Hg14 mi
8:00 PM88 °FSunny.2 mph37%30.16 "Hg15 mi
7:00 PM90 °FSunny.1 mph35%30.14 "Hg17 mi
6:00 PM90 °FSunny.2 mph33%30.15 "Hg11 mi
5:00 PM90 °FSunny.2 mph36%30.16 "Hg11 mi
4:00 PM87 °FSunny.2 mph36%30.18 "Hg15 mi
3:00 PM89 °FSunny.3 mph37%30.19 "Hg14 mi
2:00 PM88 °FSunny.2 mph36%30.20 "Hg17 mi
1:00 PM87 °FSunny.2 mph38%30.22 "Hg11 mi
12:00 PM84 °FSunny.2 mph41%30.23 "Hg11 mi
11:00 AM81 °FSunny.2 mph47%30.24 "Hg9 mi
10:00 AM80 °FSunny.2 mph52%30.24 "Hg14 mi
9:00 AM74 °FSunny.1 mph59%30.25 "Hg11 mi
8:00 AM70 °FSunny.1 mph67%30.26 "Hg8 mi
7:00 AM65 °FSunny.1 mph70%30.27 "Hg9 mi
6:00 AM63 °FSunny.No wind77%30.26 "Hg9 mi
5:00 AM63 °FClear.No wind79%30.24 "Hg9 mi
4:00 AM64 °FClear.1 mph76%30.24 "Hg11 mi
3:00 AM66 °FClear.1 mph72%30.24 "Hg11 mi
2:00 AM68 °FClear.1 mph67%30.23 "Hg12 mi
Weather by CustomWeather, © 2015

See weather overviewHow to use our weather pages